OPS 4682 (SNAPSHOT)

Satellite information

Favourite Embed

Satellite Type and Status

PAYLOADIN ORBIT

Key statistics

Satellite OPS 4682 (SNAPSHOT) at a glance.

Uptime

21951

Days in orbit

Revolutions

≈ 12.9

Per day

Orbit

SSO

Sun Synchronous Orbit

Inclination

90.2

Latest

Satellite identification and parameters

Extended collection of information and parameters for OPS 4682 (SNAPSHOT).

Object identification

Identified? True

Debris? False

Object name: OPS 4682 (SNAPSHOT)

International designator: 1965-027A

Object number (NORAD): 1314

Object ID (CCSDS): 1314

Country: UNITED STATES OF AMERICA (US)

Current information (Y/N): Y

RCS size: LARGE

Orbital parameters

Period: 111.473 minutes

Inclination: 90.2397 deg

SMA: 7672.54 km

Apoapsis: 1316.318 km

Periapsis: 1272.493 km

RAAN: 357.4284 deg

Eccentricy: 0.002856

Argument of periapsis: 268.2237 deg

Mean anomaly: 154.5409 deg

Mean motion: 12.9179617 rev/day

Mean motion (dot): 0.00000001 rev/day2

B* drag term: -0.000022855 1/REarth

Two-line elements (TLE)

Creation date: May 8, 2025, 3:01 a.m.

Reference frame: TEME

Reference center: EARTH

Epoch: May 7, 2025, 4:33 p.m. UTC

TLE line 0: 0 OPS 4682 (SNAPSHOT)

TLE line 1: 1 01314U 65027A 25127.68981854 .00000001 00000-0 -22855-4 0 9993

TLE line 2: 2 01314 90.2397 357.4284 0028560 268.2237 154.5409 12.91796170578679

Live tracking on map

Real-time ground track for satellite OPS 4682 (SNAPSHOT).

In-orbit conjunctions

There are no conjunctions computed for OPS 4682 (SNAPSHOT), at the moment. Check back to stay up to date, as we update our databases every day.

Go to all conjunctions

Associated space launch

Experimental satellite equipped with a nuclear power system and a cesium ion engine.

OPS 4682 (SNAPSHOT) was lifted into orbit during the mission ‘Atlas SLV-3 Agena D | SNAPSHOT-1’, on board a Atlas SLV-3 Agena D space rocket.

The launch took place on April 3, 1965, 9:25 p.m. from Space Launch Complex 4E.

For more information about the launch, click the button.

Launch to space Atlas SLV-3 Agena D | SNAPSHOT-1
Atlas SLV-3 Agena D | SNAPSHOT-1

Agency: N/A

Status: Launch Successful

Launch date: April 3, 1965, 9:25 p.m. UTC

Rocket: Atlas SLV-3 Agena D

Launch pad: Space Launch Complex 4E

Location: Vandenberg SFB, CA, USA

...

Latest news about this satellite

There are no fresh news available about this satellite. Check back as we update our databases every day.


Newsletter sign-up

Weekly statistics, charts and insights to help you stay on top of the space industry.